Location: Crescent
(42.8242°N, 73.7329°W)
Time: 20:12:32
(UTC+00:00)

SR - Pass Details

Date: 20 February 2026
Orbit: 573 x 848 km, 66.7° (Epoch: 6 March)

Event Time Altitude Azimuth Distance (km) Brightness Sun altitude
Rises 07:38:23 0° 169° (S) 2,763 - -44.4°
Reaches altitude 10° 07:41:09 10° 150° (SSE) 1,879 - -44.0°
Maximum altitude 07:43:58 18° 107° (ESE) 1,470 - -43.6°
Drops below altitude 10° 07:46:51 10° 65° (ENE) 1,935 - -43.1°
Exits shadow 07:48:04 - 55° (NE) 2,305 ? -42.9°
Sets 07:49:44 0° 46° (NE) 2,882 ? -42.7°
